[[{"header":{"parameterUnit":"m.s-1","parameterCategory":1,"la1":30.2991,"la2":30.254,"lo1":-89.0895,"lo2":-89.0444,"dy":0.0017,"dx":0.0017,"nx":28,"ny":28,"refTime":"2024-03-26T21:00:00:Z","depth":0,"parameterNumber":2,"parameterNumberName":"U-component_of_WINDS"},"data":[0,0,0,0,0,0,0,0,0,0,0,0,0,0,0,0,0,0,0,0,0,0,0,0,0,0,0,0,0,0,0,0,0,0,0,0,0,0,0,0,0,0,0,0,0,0,0,0,0,0,0,0,0,0,0,0,0,0,1.2678,1.2679,0,1.273,1.2731,1.2731,1.2743,1.2742,1.2742,1.2741,1.2794,1.2796,1.2797,0,0,0,0,0,0,0,0,0,0,0,0,0,1.259,1.2591,1.2678,1.2679,1.2679,1.273,1.2731,1.2732,1.2743,1.2742,1.2742,1.2741,1.2793,1.2796,1.2798,0,0,0,0,0,0,0,0,0,0,0,0,0,1.2633,1.2592,1.2678,1.2691,1.2693,1.273,1.2731,1.2732,1.2743,1.2742,1.2742,1.2741,1.2793,1.2795,1.2798,1.2826,0,0,1.2806,1.2807,0,0,0,0,0,0,0,0,1.2631,1.2637,1.2689,1.269,1.2692,1.2729,1.2719,1.2763,1.2743,1.2724,1.2741,1.2741,1.2773,1.2777,1.2788,1.2828,1.283,1.2806,1.2808,1.2809,1.281,0,0,0,0,0,0,0,1.2628,1.2635,1.2699,1.2689,1.2692,1.2695,1.27,1.2727,1.2751,1.2725,1.2726,1.2732,1.2774,1.2786,1.2789,1.2831,1.2806,1.2808,1.281,1.2811,1.2899,1.29,0,0,0,0,0,0,1.2623,1.2632,1.2697,1.27,1.266,1.2697,1.2703,1.2718,1.2751,1.2755,1.2733,1.2733,1.2781,1.2786,1.2791,1.2827,1.2809,1.2811,1.2813,1.2898,1.2899,1.29,0,0,0,0,0,0,1.2621,1.2628,1.2695,1.2666,1.2675,1.2699,1.2716,1.2719,1.2731,1.2756,1.2761,1.274,1.2781,1.2788,1.2818,1.2829,1.2813,1.2815,1.2897,1.2899,1.29,1.2899,0,0,0,0,0,0,1.2618,1.2627,1.2638,1.2667,1.2677,1.272,1.2716,1.2721,1.2736,1.2736,1.2765,1.2769,1.2781,1.2814,1.282,1.2833,1.2817,1.2896,1.2898,1.2899,1.2898,1.29,1.2901,0,0,0,0,0,1.2615,1.2635,1.2638,1.2646,1.269,1.272,1.2726,1.274,1.2736,1.2747,1.2764,1.2768,1.2827,1.2817,1.2824,1.2837,1.2896,1.2898,1.2899,1.2897,1.2899,1.2901,0,0,0,0,0,0,1.2605,1.2638,1.2643,1.2672,1.2694,1.2722,1.2736,1.2742,1.2765,1.2764,1.2781,1.2787,1.2816,1.283,1.2818,1.2867,1.2861,1.2865,1.2857,1.286,1.2861,1.2857,1.2819,0,0,0,0,0,1.2607,1.2629,1.2657,1.268,1.2691,1.2712,1.2726,1.2735,1.2758,1.2766,1.2785,1.2807,1.2831,1.2846,1.2869,1.29,1.2907,1.2913,1.2915,1.2916,1.2919,1.2939,1.2942,1.2906,1.2906,1.2906,0,0,1.261,1.2631,1.2643,1.2679,1.2697,1.272,1.2719,1.2743,1.276,1.277,1.28,1.2815,1.284,1.2872,1.2886,1.2884,1.2931,1.2919,1.2919,1.2921,1.2941,1.2944,1.2947,1.2907,1.2907,1.2906,0,0,1.2627,1.2645,1.2668,1.2686,1.2713,1.2727,1.2733,1.2761,1.2772,1.2802,1.2811,1.2832,1.2872,1.2891,1.2905,1.2933,1.2938,1.294,1.2949,1.2968,1.2971,1.2974,1.2985,1.2988,1.2943,1.2943,1.2943,0,1.2628,1.2662,1.2678,1.2702,1.2719,1.273,1.2753,1.277,1.2803,1.2814,1.2812,1.2864,1.2882,1.2919,1.2926,1.2937,1.2945,1.2937,1.2969,1.2972,1.2975,1.2986,1.299,1.2943,1.2943,1.2943,1.2943,0,1.2662,1.2686,1.2701,1.2734,1.2752,1.2776,1.2796,1.2813,1.2821,1.2836,1.2868,1.2891,1.292,1.2929,1.2937,1.2968,1.2966,1.2966,1.296,1.2978,1.2989,1.2993,1.2943,1.2943,1.2943,1.2943,0,0,1.2673,1.2717,1.2722,1.2738,1.277,1.2789,1.2814,1.2843,1.2858,1.2881,1.2903,1.2939,1.294,1.2957,1.2967,1.2984,1.3006,1.2982,1.2983,1.2987,1.3043,1.3043,1.3048,1.301,1.3011,1.3012,1.3042,0,1.2695,1.274,1.2756,1.2794,1.2817,1.283,1.2852,1.2875,1.289,1.2913,1.293,1.2955,1.2954,1.2964,1.2981,1.3,1.3018,1.2998,1.3032,1.3033,1.3025,1.3053,1.3052,1.3079,1.3046,1.3046,1.3047,0,1.2726,1.2751,1.2791,1.2822,1.2833,1.2852,1.2882,1.2903,1.293,1.294,1.296,1.297,1.2998,1.2992,1.3031,1.3017,1.3032,1.3044,1.3045,1.3049,1.3041,1.3058,1.3088,1.3092,1.3053,1.3053,1.3052,0,1.2731,1.2775,1.2805,1.2818,1.2855,1.2869,1.2885,1.2911,1.2929,1.2955,1.2966,1.2995,1.301,1.3033,1.3051,1.3044,1.309,1.3084,1.3099,1.3099,1.3108,1.3107,1.3141,1.3117,1.3117,1.3117,1.3117,0,1.2754,1.2778,1.2808,1.2826,1.2855,1.2874,1.2902,1.2919,1.2942,1.2965,1.2978,1.2999,1.3021,1.3046,1.306,1.3092,1.3099,1.3108,1.3112,1.3107,1.3106,1.3117,1.3116,1.3118,1.3118,1.3118,1.3117,0,1.2764,1.2785,1.2819,1.2852,1.2861,1.2881,1.2909,1.2928,1.2945,1.2974,1.2982,1.3009,1.3039,1.3059,1.3097,1.3107,1.3142,1.3145,1.3133,1.3134,1.3149,1.3148,1.3192,1.3199,1.317,1.317,1.317,0,1.2777,1.2796,1.2832,1.2849,1.2865,1.2891,1.2909,1.293,1.2949,1.2982,1.2998,1.3029,1.3054,1.3102,1.3125,1.3154,1.3159,1.3172,1.3163,1.3159,1.316,1.3159,1.3161,1.3173,1.3173,1.3174,1.3174,0,1.2798,1.2809,1.2834,1.2865,1.2886,1.2911,1.2936,1.2949,1.2974,1.2994,1.3025,1.3046,1.3086,1.3117,1.3149,1.3167,1.3175,1.3177,1.3182,1.3178,1.317,1.3176,1.3137,1.3175,1.3175,1.3175,1.3175,1.3175,1.2811,1.2829,1.2858,1.2887,1.2909,1.2932,1.2952,1.2973,1.2999,1.3033,1.3044,1.3077,1.3106,1.3151,1.3169,1.3195,1.3194,1.3202,1.3204,1.3205,1.3206,1.3166,1.3201,1.3201,1.3201,1.3201,1.3201,0,1.2834,1.2854,1.288,1.2915,1.2939,1.2945,1.2974,1.2993,1.3022,1.3048,1.3074,1.3111,1.3142,1.3168,1.3201,1.3217,1.3222,1.3225,1.3224,1.3228,1.3204,1.3197,1.322,1.322,1.322,1.322,1.322,1.322,1.2848,1.288,1.2894,1.2938,1.2958,1.299,1.3006,1.3029,1.305,1.3091,1.3117,1.3134,1.3161,1.3196,1.3225,1.3233,1.3244,1.3246,1.3254,1.3232,1.3229,1.3227,1.322,1.3249,1.3249,1.3276,1.3276,1.3277]},{"header":{"parameterUnit":"m.s-1","parameterCategory":1,"la1":30.2991,"la2":30.254,"lo1":-89.0895,"lo2":-89.0444,"dy":0.0017,"dx":0.0017,"nx":28,"ny":28,"refTime":"2024-03-26T21:00:00:Z","depth":0,"parameterNumber":3,"parameterNumberName":"V-component_of_WINDS"},"data":[0,0,0,0,0,0,0,0,0,0,0,0,0,0,0,0,0,0,0,0,0,0,0,0,0,0,0,0,0,0,0,0,0,0,0,0,0,0,0,0,0,0,0,0,0,0,0,0,0,0,0,0,0,0,0,0,0,0,-5.7958,-5.7958,0,-5.7944,-5.7944,-5.7944,-5.7913,-5.7912,-5.7911,-5.7911,-5.7893,-5.7893,-5.7893,0,0,0,0,0,0,0,0,0,0,0,0,0,-5.7956,-5.7956,-5.7958,-5.7958,-5.7958,-5.7944,-5.7944,-5.7944,-5.7913,-5.7912,-5.7911,-5.791,-5.7893,-5.7893,-5.7893,0,0,0,0,0,0,0,0,0,0,0,0,0,-5.7951,-5.7956,-5.7958,-5.7941,-5.7939,-5.7944,-5.7944,-5.7944,-5.7913,-5.7912,-5.7911,-5.791,-5.7893,-5.7893,-5.7893,-5.7913,0,0,-5.7894,-5.7894,0,0,0,0,0,0,0,0,-5.7951,-5.7951,-5.7943,-5.7942,-5.794,-5.7929,-5.7937,-5.7933,-5.7913,-5.7923,-5.7911,-5.791,-5.7906,-5.7905,-5.7904,-5.7912,-5.7912,-5.7894,-5.7894,-5.7894,-5.7894,0,0,0,0,0,0,0,-5.7952,-5.7951,-5.7952,-5.7943,-5.7941,-5.7933,-5.7931,-5.7936,-5.7919,-5.7922,-5.7919,-5.7918,-5.7905,-5.7904,-5.7903,-5.7911,-5.7894,-5.7894,-5.7894,-5.7894,-5.7937,-5.7938,0,0,0,0,0,0,-5.7955,-5.7952,-5.7953,-5.7952,-5.7944,-5.7934,-5.7932,-5.7933,-5.7919,-5.7916,-5.7919,-5.7917,-5.7904,-5.7903,-5.7903,-5.7926,-5.7894,-5.7894,-5.7894,-5.7936,-5.7937,-5.7938,0,0,0,0,0,0,-5.7955,-5.7955,-5.7953,-5.7951,-5.7951,-5.7935,-5.7937,-5.7934,-5.7933,-5.7918,-5.7914,-5.7922,-5.7903,-5.7902,-5.7911,-5.7925,-5.7894,-5.7895,-5.7935,-5.7936,-5.7938,-5.7972,0,0,0,0,0,0,-5.7955,-5.7956,-5.7963,-5.7952,-5.7951,-5.7963,-5.7938,-5.7934,-5.7934,-5.7931,-5.7919,-5.7916,-5.7903,-5.7911,-5.7912,-5.7924,-5.7895,-5.7934,-5.7936,-5.7937,-5.7969,-5.7974,-5.7979,0,0,0,0,0,-5.7955,-5.7972,-5.7964,-5.7964,-5.796,-5.7964,-5.7963,-5.7948,-5.7935,-5.7942,-5.7933,-5.7917,-5.7924,-5.7913,-5.7913,-5.7926,-5.7933,-5.7935,-5.7937,-5.7967,-5.7973,-5.7978,0,0,0,0,0,0,-5.7983,-5.797,-5.7961,-5.7975,-5.7971,-5.7958,-5.7967,-5.7955,-5.7953,-5.795,-5.7931,-5.7928,-5.794,-5.7934,-5.7922,-5.7945,-5.7926,-5.7928,-5.7948,-5.7954,-5.7959,-5.7959,-5.7895,0,0,0,0,0,-5.7992,-5.7997,-5.7984,-5.7998,-5.7997,-5.7983,-5.7983,-5.7973,-5.7967,-5.7965,-5.7956,-5.7951,-5.7952,-5.7953,-5.7953,-5.7969,-5.7966,-5.7978,-5.7983,-5.7986,-5.7988,-5.7997,-5.8003,-5.7946,-5.7946,-5.7946,0,0,-5.8008,-5.8001,-5.8005,-5.8004,-5.7999,-5.8004,-5.7981,-5.7987,-5.799,-5.7965,-5.7974,-5.7967,-5.796,-5.7973,-5.7979,-5.7968,-5.8004,-5.7989,-5.7993,-5.7992,-5.8,-5.8006,-5.8011,-5.7948,-5.7947,-5.7947,0,0,-5.804,-5.8036,-5.8047,-5.8044,-5.8039,-5.803,-5.8033,-5.8023,-5.8018,-5.8027,-5.8008,-5.8012,-5.8014,-5.801,-5.8009,-5.8043,-5.8028,-5.8043,-5.8066,-5.8076,-5.808,-5.8084,-5.8096,-5.8101,-5.8045,-5.8045,-5.8046,0,-5.806,-5.8068,-5.8054,-5.8062,-5.8062,-5.8042,-5.8053,-5.8051,-5.8045,-5.8045,-5.8035,-5.8038,-5.8032,-5.8044,-5.8053,-5.8052,-5.8055,-5.8044,-5.8081,-5.8084,-5.8088,-5.8099,-5.8104,-5.8047,-5.8047,-5.8047,-5.8047,0,-5.8094,-5.81,-5.811,-5.8107,-5.8108,-5.8117,-5.8105,-5.8108,-5.8097,-5.809,-5.8099,-5.8091,-5.809,-5.8093,-5.8082,-5.8104,-5.8098,-5.8084,-5.8064,-5.8095,-5.8106,-5.811,-5.805,-5.8049,-5.8049,-5.8048,0,0,-5.8141,-5.8133,-5.8136,-5.8136,-5.8129,-5.8133,-5.8143,-5.8143,-5.8146,-5.8144,-5.8151,-5.8154,-5.8142,-5.8141,-5.8129,-5.8138,-5.8166,-5.8123,-5.8122,-5.8131,-5.819,-5.82,-5.8206,-5.8157,-5.8157,-5.8158,-5.8191,0,-5.8171,-5.8187,-5.8176,-5.8193,-5.8199,-5.8181,-5.8189,-5.8187,-5.818,-5.8183,-5.8176,-5.8179,-5.8163,-5.8162,-5.8169,-5.8161,-5.8177,-5.8158,-5.8162,-5.8163,-5.8164,-5.8211,-5.8221,-5.8253,-5.8195,-5.8196,-5.8196,0,-5.8208,-5.8209,-5.8228,-5.8223,-5.8224,-5.8232,-5.8232,-5.8236,-5.8233,-5.8228,-5.8227,-5.8215,-5.8223,-5.8205,-5.8216,-5.8204,-5.8205,-5.8201,-5.8202,-5.8201,-5.8181,-5.8211,-5.8262,-5.8267,-5.8202,-5.8202,-5.8202,0,-5.8241,-5.8247,-5.8259,-5.8259,-5.8253,-5.8259,-5.8257,-5.8253,-5.8254,-5.8255,-5.8256,-5.8257,-5.8257,-5.8258,-5.8246,-5.8234,-5.8259,-5.8239,-5.8255,-5.8255,-5.8259,-5.8259,-5.8311,-5.8262,-5.8261,-5.8261,-5.8261,0,-5.8275,-5.8287,-5.8274,-5.8282,-5.8295,-5.8283,-5.8296,-5.8292,-5.8289,-5.8295,-5.828,-5.8286,-5.827,-5.8274,-5.8265,-5.8276,-5.8276,-5.8272,-5.8269,-5.8273,-5.8274,-5.8273,-5.827,-5.8263,-5.8262,-5.8262,-5.8262,0,-5.8313,-5.8305,-5.8317,-5.8312,-5.8311,-5.8321,-5.8316,-5.8322,-5.8316,-5.8324,-5.8325,-5.8315,-5.832,-5.8309,-5.8311,-5.8305,-5.8321,-5.8315,-5.8323,-5.832,-5.8336,-5.8335,-5.8389,-5.8396,-5.8342,-5.8343,-5.8343,0,-5.8335,-5.8344,-5.834,-5.8344,-5.8343,-5.8349,-5.8352,-5.8341,-5.8344,-5.8342,-5.8349,-5.8353,-5.8355,-5.8363,-5.8355,-5.8358,-5.8351,-5.837,-5.8351,-5.8355,-5.8351,-5.8351,-5.8352,-5.8374,-5.8374,-5.8375,-5.8375,0,-5.8375,-5.8371,-5.8376,-5.838,-5.8384,-5.8386,-5.8387,-5.8391,-5.8379,-5.8383,-5.8388,-5.8391,-5.8395,-5.8398,-5.8399,-5.8396,-5.8384,-5.8382,-5.8385,-5.8389,-5.8393,-5.8391,-5.8333,-5.838,-5.838,-5.8379,-5.8379,-5.8379,-5.8405,-5.8413,-5.8413,-5.8419,-5.8419,-5.8421,-5.8427,-5.8423,-5.8428,-5.8431,-5.8424,-5.8432,-5.843,-5.843,-5.8429,-5.8434,-5.8425,-5.843,-5.8432,-5.8433,-5.8436,-5.8393,-5.8434,-5.8434,-5.8434,-5.8434,-5.8434,0,-5.8444,-5.8444,-5.845,-5.8453,-5.8458,-5.8448,-5.8449,-5.8454,-5.8461,-5.8461,-5.8465,-5.8472,-5.8477,-5.847,-5.8474,-5.8479,-5.8474,-5.848,-5.8479,-5.8479,-5.8443,-5.844,-5.8485,-5.8485,-5.8485,-5.8485,-5.8485,-5.8485,-5.8465,-5.8479,-5.8475,-5.8489,-5.8488,-5.8497,-5.8498,-5.85,-5.85,-5.851,-5.8514,-5.8511,-5.8508,-5.8512,-5.8516,-5.8514,-5.8515,-5.8524,-5.852,-5.8487,-5.8481,-5.8477,-5.8473,-5.8525,-5.8525,-5.8556,-5.8556,-5.8556]}]]